{"data":{"norad_id":65701,"intl_designator":"2025-212AB","name":"STARLINK-35046","alt_names":[],"object_type":"PAYLOAD","status":"ACTIVE","operator":null,"country":"US","launch_date":"2025-09-21","launch_site_code":"AFETR","launch_vehicle":null,"mission":null,"orbit_class":"UNKNOWN","rcs_meters":null,"size_class":null,"mass_kg":null,"dimensions":null,"purposes":["comms"],"wikipedia_slug":null,"has_3d_model":false,"image_url":null,"decayed_at":null,"tle_current":{"epoch":"2026-09-20T10:29:57.329376Z","epoch_age_seconds":113936,"freshness":"FRESH","line1":"1 65701U 25212AB  26263.43746909  .00018498  00000+0  55740-3 0  9995","line2":"2 65701  53.1597 158.0186 0000637  67.4525 292.6545 15.34392466 57104","mean_motion":15.34392466,"eccentricity":6.37e-5,"inclination_deg":53.1597,"raan_deg":158.0186,"arg_perigee_deg":67.4525,"mean_anomaly_deg":292.6545,"bstar":0.0005574,"rev_number":5710,"period_min":93.848218881961,"perigee_km":462.28986998473,"apogee_km":463.16139588417,"semimajor_km":6840.8626329344,"source":"CELESTRAK","updated_at":"2026-09-21T09:00:35.690376Z"}}}